Satellite: NO-61
Catalog number: 29667
Epoch time:      07039.83962397
Element set:      48
Inclination:      051.6365 deg
RA of node:       045.0642 deg
Eccentricity:    0.0015456
Arg of perigee:   199.4206 deg
Mean anomaly:     160.6219 deg
Mean motion:   15.83561676 rev/day
Decay rate:     1.7048e-04 rev/day^2
Epoch rev:             763
Checksum:              331

/EX
SB KEPS @ AMSAT  $ORB07039.W
Orbital Elements  07039.WEATHER

HR AMSAT ORBITAL ELEMENTS FOR WEATHER SATELLITES
FROM WA5QGD FORT WORTH,TX February 8, 2007
Send SUBSCRIBE KEPS/UNSUBSCRIBE KEPS to majordomo at amsat.org only
BID: ORB07039.W
TO ALL RADIO AMATEURS BT

Satellite: NOAA-10
Catalog number: 16969
Epoch time:      07038.61625296
Element set:    0537
Inclination:      098.7541 deg
RA of node:       055.6694 deg
Eccentricity:    0.0012202
Arg of perigee:   181.9513 deg
Mean anomaly:     178.1617 deg
Mean motion:   14.27316805 rev/day
Decay rate:       -2.3e-07 rev/day^2
Epoch rev:           06074
Checksum:              308

Satellite: NOAA-11
Catalog number: 19531
Epoch time:      07038.29175365
Element set:    0523
Inclination:      098.8150 deg
RA of node:       129.0703 deg
Eccentricity:    0.0012332
Arg of perigee:   043.1114 deg
Mean anomaly:     317.1014 deg
Mean motion:   14.14835271 rev/day
Decay rate:       2.73e-06 rev/day^2
Epoch rev:           94778
Checksum:              275

Satellite: NOAA-12
Catalog number: 21263
Epoch time:      07038.52324784
Element set:    0017
Inclination:      098.7486 deg
RA of node:       036.0115 deg
Eccentricity:    0.0013624
Arg of perigee:   122.8651 deg
Mean anomaly:     237.3856 deg
Mean motion:   14.25521737 rev/day
Decay rate:        4.3e-07 rev/day^2
Epoch rev:           81777
Checksum:              296

Satellite: MET-3/5
Catalog number: 21655
Epoch time:      07039.85975048
Element set:     223
Inclination:      082.5548 deg
RA of node:       093.6186 deg
Eccentricity:    0.0013646
Arg of perigee:   164.5212 deg
Mean anomaly:     195.6330 deg
Mean motion:   13.17010197 rev/day
Decay rate:        5.1e-07 rev/day^2
Epoch rev:           74451
Checksum:              300

Satellite: MET-2/21
Catalog number: 22782
Epoch time:      07038.41878197
Element set:    0743
Inclination:      082.5511 deg
RA of node:       144.8659 deg
Eccentricity:    0.0021074
Arg of perigee:   238.2900 deg
Mean anomaly:     121.6207 deg
Mean motion:   13.83612987 rev/day
Decay rate:       -7.0e-08 rev/day^2
Epoch rev:           67857
Checksum:              320

Satellite: OKEAN-4
Catalog number: 23317
Epoch time:      07038.79075688
Element set:    0181
Inclination:      082.5365 deg
RA of node:       057.2501 deg
Eccentricity:    0.0021197
Arg of perigee:   322.8917 deg
Mean anomaly:     037.0831 deg
Mean motion:   14.82464022 rev/day
Decay rate:       1.42e-06 rev/day^2
Epoch rev:           66488
Checksum:              303

Satellite: NOAA-14
Catalog number: 23455
Epoch time:      07038.84409037
Element set:    0510
Inclination:      099.0063 deg
RA of node:       104.2518 deg
Eccentricity:    0.0010177
Arg of perigee:   105.9441 deg
Mean anomaly:     254.2830 deg
Mean motion:   14.13697217 rev/day
Decay rate:       -8.5e-07 rev/day^2
Epoch rev:           62436
Checksum:              282

Satellite: SICH-1
Catalog number: 23657
Epoch time:      07038.81019535
Element set:    0982
Inclination:      082.5271 deg
RA of node:       198.1369 deg
Eccentricity:    0.0022721
Arg of perigee:   311.2158 deg
Mean anomaly:     048.7098 deg
Mean motion:   14.81449035 rev/day
Decay rate:       1.96e-06 rev/day^2
Epoch rev:           61687
Checksum:              319

Satellite: NOAA-15
Catalog number: 25338
Epoch time:      07038.52100866
Element set:    0870
Inclination:      098.5272 deg
RA of node:       038.8859 deg
Eccentricity:    0.0011272
Arg of perigee:   051.4472 deg
Mean anomaly:     308.7717 deg
Mean motion:   14.24625790 rev/day
Decay rate:        7.6e-07 rev/day^2
Epoch rev:           45422
Checksum:              312

Satellite: RESURS
Catalog number: 25394
Epoch time:      07039.77640062
Element set:     567
Inclination:      098.4566 deg
RA of node:       099.2796 deg
Eccentricity:    0.0001030
Arg of perigee:   170.7053 deg
Mean anomaly:     189.4145 deg
Mean motion:   14.24126866 rev/day
Decay rate:        2.1e-07 rev/day^2
Epoch rev:           44607
Checksum:              305

Satellite: FENGYUN1
Catalog number: 25730
Epoch time:      07039.60693587
Element set:     936
Inclination:      098.6899 deg
RA of node:       028.4015 deg
Eccentricity:    0.0015077
Arg of perigee:   120.6216 deg
Mean anomaly:     239.6457 deg
Mean motion:   14.08704658 rev/day
Decay rate:       6.15e-06 rev/day^2
Epoch rev:           39937
Checksum:              337

Satellite: OKEAN-0
Catalog number: 25860
Epoch time:      07038.79646321
Element set:    0973
Inclination:      097.7305 deg
RA of node:       047.0945 deg
Eccentricity:    0.0001936
Arg of perigee:   075.6883 deg
Mean anomaly:     284.4551 deg
Mean motion:   14.73428736 rev/day
Decay rate:        6.8e-07 rev/day^2
Epoch rev:           40644
Checksum:              329

Satellite: NOAA-16
Catalog number: 26536
Epoch time:      07038.48225949
Element set:    0276
Inclination:      099.1022 deg
RA of node:       013.2669 deg
Eccentricity:    0.0010698
Arg of perigee:   174.5576 deg
Mean anomaly:     185.5730 deg
Mean motion:   14.12403889 rev/day
Decay rate:       2.61e-06 rev/day^2
Epoch rev:           32879
Checksum:              331

Satellite: NOAA-17
Catalog number: 27453
Epoch time:      07038.51731654
Element set:    0292
Inclination:      098.5948 deg
RA of node:       110.8547 deg
Eccentricity:    0.0012699
Arg of perigee:   111.2013 deg
Mean anomaly:     249.0534 deg
Mean motion:   14.23852515 rev/day
Decay rate:       2.12e-06 rev/day^2
Epoch rev:           24026
Checksum:              289

Satellite: NOAA-18
Catalog number: 28654
Epoch time:      07039.27067784
Element set:     837
Inclination:      098.8171 deg
RA of node:       342.8052 deg
Eccentricity:    0.0013520
Arg of perigee:   273.7194 deg
Mean anomaly:     086.2445 deg
Mean motion:   14.11034106 rev/day
Decay rate:        6.0e-08 rev/day^2
Epoch rev:            8867
Checksum:              311

/EX
SB KEPS @ AMSAT  $ORB07039.M
Orbital Elements  07039.MISC

HR AMSAT ORBITAL ELEMENTS FOR MANNED AND MISCELLANEOUS SATELLITES
FROM WA5QGD FORT WORTH,TX February 8, 2007
Send SUBSCRIBE KEPS/UNSUBSCRIBE KEPS to majordomo at amsat.org only
BID: ORB07039.M
TO ALL RADIO AMATEURS BT

Satellite: HUBBLE
Catalog number: 20580
Epoch time:      07038.94749382
Element set:    0838
Inclination:      028.4694 deg
RA of node:       312.8414 deg
Eccentricity:    0.0003805
Arg of perigee:   165.7629 deg
Mean anomaly:     194.3067 deg
Mean motion:   15.00187670 rev/day
Decay rate:       4.77e-06 rev/day^2
Epoch rev:           72053
Checksum:              315

Satellite: UARS
Catalog number: 21701
Epoch time:      07039.79337801
Element set:     990
Inclination:      056.9759 deg
RA of node:       150.5231 deg
Eccentricity:    0.0091166
Arg of perigee:   306.5846 deg
Mean anomaly:     052.6846 deg
Mean motion:   15.46627911 rev/day
Decay rate:      5.505e-05 rev/day^2
Epoch rev:           84587
Checksum:              327

Satellite: PO-34
Catalog number: 25520
Epoch time:      07039.88542762
Element set:     670
Inclination:      028.4598 deg
RA of node:       247.4136 deg
Eccentricity:    0.0005034
Arg of perigee:   296.2234 deg
Mean anomaly:     063.7849 deg
Mean motion:   15.16921354 rev/day
Decay rate:       5.51e-06 rev/day^2
Epoch rev:           45802
Checksum:              312

Satellite: ISS
Catalog number: 25544
Epoch time:      07039.84381418
Element set:     605
Inclination:      051.6355 deg
RA of node:       047.2563 deg
Eccentricity:    0.0021841
Arg of perigee:   183.6119 deg
Mean anomaly:     237.7525 deg
Mean motion:   15.78038612 rev/day
Decay rate:     2.0476e-04 rev/day^2
Epoch rev:           47050
Checksum:              298

Satellite: OO-38
Catalog number: 26063
Epoch time:      07039.53026650
Element set:     834
Inclination:      100.2178 deg
RA of node:       018.4337 deg
Eccentricity:    0.0037078
Arg of perigee:   161.3463 deg
Mean anomaly:     198.9090 deg
Mean motion:   14.35794939 rev/day
Decay rate:       -2.6e-07 rev/day^2
Epoch rev:           36858
Checksum:              323

Satellite: NO-45
Catalog number: 26932
Epoch time:      07038.72229272
Element set:    0537
Inclination:      067.0570 deg
RA of node:       120.7270 deg
Eccentricity:    0.0003911
Arg of perigee:   285.4863 deg
Mean anomaly:     074.5805 deg
Mean motion:   14.29549285 rev/day
Decay rate:        8.4e-07 rev/day^2
Epoch rev:           27963
Checksum:              319

Satellite: UWE-1
Catalog number: 28892
Epoch time:      07038.22582832
Element set:    0672
Inclination:      098.1444 deg
RA of node:       297.3529 deg
Eccentricity:    0.0017634
Arg of perigee:   154.8652 deg
Mean anomaly:     205.3434 deg
Mean motion:   14.59461743 rev/day
Decay rate:       1.32e-06 rev/day^2
Epoch rev:           06825
Checksum:              316

Satellite: CO-58
Catalog number: 28895
Epoch time:      07037.45472078
Element set:    0653
Inclination:      098.1493 deg
RA of node:       296.7593 deg
Eccentricity:    0.0018559
Arg of perigee:   157.5801 deg
Mean anomaly:     202.6192 deg
Mean motion:   14.59510609 rev/day
Decay rate:        7.0e-07 rev/day^2
Epoch rev:           06802
Checksum:              339

